This demonstration page uses our WeatherBlox Daily Observations layout. Learn more.

Hourly Observations for April 14, 2015

Temp ( °F °C ) Dew Point ( °F °C ) Humidity (%) Winds ( mph kmh ) Pressure ( in mb ) Visibility ( mi km ) Precip ( " mm )
12:15 am 00:15 Clear 51 10.7 26 -3.6 37 37 S 12 19 30.24 1024 10 16.0934 0 0
12:35 am 00:35 Clear 50 10.1 26 -3.6 38 38 S 13 20 30.24 1024 10 16.0934 0 0
12:55 am 00:55 Clear 49 9.2 26 -3.2 42 42 S 13 20 30.24 1024 10 16.0934 0 0
1:15 am 01:15 Clear 49 9.2 26 -3.5 41 41 S 12 19 30.24 1024 10 16.0934 0 0
1:35 am 01:35 Clear 48 9 25 -3.7 41 41 S 10 17 30.24 1024 10 16.0934 0 0
1:55 am 01:55 Clear 46 7.9 26 -3.6 44 44 S 7 11 30.24 1024 10 16.0934 0 0
2:15 am 02:15 Clear 46 7.7 26 -3.6 45 45 S 10 17 30.24 1024 10 16.0934 0 0
2:35 am 02:35 Clear 46 7.7 25 -3.7 45 45 SSW 9 15 30.24 1024 10 16.0934 0 0
2:55 am 02:55 Clear 45 7 26 -3.5 48 48 SSW 8 13 30.27 1025 10 16.0934 0 0
3:15 am 03:15 Clear 42 5.7 26 -3.5 52 52 SSW 5 7 30.24 1024 10 16.0934 0 0
3:35 am 03:35 Clear 41 5.1 26 -3.6 54 54 SSW 8 13 30.24 1024 10 16.0934 0 0
3:55 am 03:55 Clear 41 5.1 26 -3.6 54 54 SSW 6 9 30.24 1024 10 16.0934 0 0
4:15 am 04:15 Clear 41 5 26 -3.5 55 55 SSW 7 11 30.24 1024 10 16.0934 0 0
4:35 am 04:35 Clear 42 5.3 26 -3.6 53 53 SSW 7 11 30.24 1024 10 16.0934 0 0
4:55 am 04:55 Clear 42 5.3 26 -3.5 53 53 SW 6 9 30.24 1024 10 16.0934 0 0
5:15 am 05:15 Clear 42 5.6 26 -3.5 52 52 SW 7 11 30.24 1024 10 16.0934 0 0
5:35 am 05:35 Clear 42 5.3 26 -3.5 53 53 SW 8 13 30.24 1024 10 16.0934 0 0
5:55 am 05:55 Clear 41 4.9 26 -3.5 55 55 SW 8 13 30.24 1024 10 16.0934 0 0
6:15 am 06:15 Clear 40 4.6 26 -3.3 57 57 SW 8 13 30.24 1024 10 16.0934 0 0
6:35 am 06:35 Clear 41 4.8 26 -3.3 56 56 SSW 7 11 30.24 1024 10 16.0934 0 0
6:55 am 06:55 Clear 40 4.6 26 -3.2 57 57 SSW 6 9 30.24 1024 10 16.0934 0 0
7:15 am 07:15 Sunny 39 4 26 -3.2 60 60 SSW 7 11 30.27 1025 10 16.0934 0 0
7:35 am 07:35 Sunny 40 4.6 27 -3 58 58 SSW 6 9 30.24 1024 10 16.0934 0 0
7:55 am 07:55 Sunny 42 5.3 27 -2.6 57 57 S 7 11 30.24 1024 10 16.0934 0 0
8:15 am 08:15 Sunny 43 6.1 28 -2.2 56 56 SSW 7 11 30.24 1024 10 16.0934 0 0
8:35 am 08:35 Sunny 45 7 29 -1.9 53 53 S 6 9 30.24 1024 10 16.0934 0 0
8:55 am 08:55 Sunny 48 8.8 29 -1.6 48 48 S 7 11 30.21 1023 10 16.0934 0 0
9:15 am 09:15 Sunny 48 8.9 28 -2.1 46 46 S 8 13 30.21 1023 10 16.0934 0 0
9:35 am 09:35 Sunny 49 9.7 28 -2.2 44 44 S 12 19 30.21 1023 10 16.0934 0 0
9:55 am 09:55 Sunny 50 10.1 28 -2.1 43 43 S 12 19 30.21 1023 10 16.0934 0 0
10:15 am 10:15 Sunny 54 12.2 28 -2.3 37 37 S 14 22 30.18 1022 10 16.0934 0 0
10:35 am 10:35 Sunny 53 11.6 28 -2.3 38 38 SSW 14 22 30.18 1022 10 16.0934 0 0
10:55 am 10:55 Sunny 57 14 29 -1.7 34 34 SSW 14 22 30.18 1022 10 16.0934 0 0
11:15 am 11:15 Sunny 61 16.2 28 -2.5 28 28 SSW 21 33 30.15 1021 10 16.0934 0 0
11:35 am 11:35 Sunny 62 16.5 25 -3.8 25 25 S 16 26 30.15 1021 10 16.0934 0 0
11:55 am 11:55 Sunny 62 16.9 26 -3.5 25 25 S 21 33 30.12 1020 10 16.0934 0 0
12:15 pm 12:15 Sunny 64 18 24 -4.5 21 21 SSE 23 37 30.09 1019 10 16.0934 0 0
12:35 pm 12:35 Sunny 64 18 23 -4.9 21 21 S 20 31 30.09 1019 10 16.0934 0 0
12:55 pm 12:55 Sunny 64 17.8 22 -5.4 20 20 S 23 37 30.06 1018 10 16.0934 0 0
1:15 pm 13:15 Sunny 65 18.5 23 -5 20 20 S 21 33 30.06 1018 10 16.0934 0 0
1:35 pm 13:35 Sunny 66 18.7 20 -6.7 17 17 S 23 37 30.06 1018 10 16.0934 0 0
1:55 pm 13:55 Sunny 67 19.2 19 -7.2 16 16 SSE 21 33 30.06 1018 10 16.0934 0 0
2:15 pm 14:15 Sunny 67 19.7 19 -7.1 16 16 SSE 24 39 30.06 1018 10 16.0934 0 0
2:35 pm 14:35 Sunny 67 19.2 19 -7.2 16 16 S 20 31 30.06 1018 10 16.0934 0 0
2:55 pm 14:55 Sunny 68 19.9 21 -6.3 16 16 S 17 28 30.03 1017 10 16.0934 0 0
3:15 pm 15:15 Sunny 66 19 20 -6.6 17 17 SSE 20 31 30.03 1017 10 16.0934 0 0
3:35 pm 15:35 Sunny 67 19.2 19 -7 16 16 SSE 21 33 30.03 1017 10 16.0934 0 0
3:55 pm 15:55 Sunny 67 19.4 19 -7.5 16 16 SSE 15 24 30 1016 10 16.0934 0 0
4:15 pm 16:15 Sunny 66 19 18 -7.8 16 16 S 18 30 30 1016 10 16.0934 0 0
4:35 pm 16:35 Sunny 66 18.7 18 -7.9 16 16 S 16 26 30 1016 10 16.0934 0 0
4:55 pm 16:55 Sunny 66 19 19 -7.4 16 16 SSE 15 24 30 1016 10 16.0934 0 0
5:15 pm 17:15 Sunny 67 19.4 19 -7.5 16 16 S 22 35 29.97 1015 10 16.0934 0 0
5:35 pm 17:35 Sunny 67 19.3 19 -7.1 16 16 SSE 21 33 29.97 1015 10 16.0934 0 0
5:55 pm 17:55 Sunny 66 19 19 -7.5 16 16 SSE 16 26 29.97 1015 10 16.0934 0 0
6:15 pm 18:15 Sunny 67 19.2 19 -7.4 16 16 SSE 18 30 29.97 1015 10 16.0934 0 0
6:35 pm 18:35 Sunny 65 18.6 18 -7.8 16 16 SSE 21 33 29.97 1015 10 16.0934 0 0
6:55 pm 18:55 Sunny 64 18 19 -7.1 17 17 SSE 17 28 29.97 1015 10 16.0934 0 0
7:15 pm 19:15 Sunny 63 17.4 21 -6.3 19 19 SE 18 30 29.97 1015 10 16.0934 0 0
7:35 pm 19:35 Sunny 62 16.7 21 -6.2 20 20 SE 21 33 29.97 1015 10 16.0934 0 0
7:55 pm 19:55 Sunny 60 15.8 21 -6 22 22 SE 15 24 29.94 1014 7 11.26538 0 0
8:15 pm 20:15 Clear 59 14.8 21 -6 23 23 SE 15 24 29.97 1015 7 11.26538 0 0
8:35 pm 20:35 Clear 56 13.5 22 -5.5 26 26 SE 13 20 29.97 1015 10 16.0934 0 0
8:55 pm 20:55 Clear 55 12.8 23 -5.1 29 29 SE 13 20 29.97 1015 10 16.0934 0 0
9:15 pm 21:15 Clear 52 11.3 23 -5 32 32 SE 10 17 30 1016 10 16.0934 0 0
9:35 pm 21:35 Clear 50 9.9 23 -5 35 35 SSE 10 17 30.03 1017 10 16.0934 0 0
9:55 pm 21:55 Clear 47 8.5 23 -5 38 38 SSE 9 15 30.06 1018 10 16.0934 0 0
10:15 pm 22:15 Clear 46 7.5 23 -5 41 41 SSE 8 13 30.06 1018 10 16.0934 0 0
10:35 pm 22:35 Clear 44 6.5 23 -4.9 44 44 SE 7 11 30.06 1018 10 16.0934 0 0
10:55 pm 22:55 Clear 42 5.6 23 -5.1 46 46 SE 8 13 30.09 1019 10 16.0934 0 0
11:15 pm 23:15 Clear 43 6 24 -4.6 47 47 SE 9 15 30.03 1017 10 16.0934 0 0
11:35 pm 23:35 Clear 43 6.3 25 -3.9 48 48 SE 10 17 30.03 1017 10 16.0934 0 0
11:55 pm 23:55 Clear 44 6.6 26 -3.6 48 48 SE 10 17 30.03 1017 10 16.0934 0 0

Powered by AerisWeather